Location: Berlin
(42.3812°N, 71.6370°W)
Time: 06:02:55
(UTC+00:00)

Cosmos 371 Rocket - Pass Details

Date: 15 November 2025
Orbit: 674 x 690 km, 74.0° (Epoch: 09 December)

Event Time Altitude Azimuth Distance (km) Brightness Sun altitude
Exits shadow 10:45:29 - 315° (NW) 2,223 5.4 -9.9°
Reaches altitude 10° 10:45:43 10° 314° (NW) 2,149 5.3 -9.8°
Maximum altitude 10:49:34 24° 261° (W) 1,416 4.4 -9.1°
Drops below altitude 10° 10:53:23 10° 208° (SSW) 2,134 5.7 -8.5°
Sets 10:56:02 0° 195° (SSW) 3,043 6.7 -8.0°
